DLH1VA EDDV-EDDM

Flight info

Callsign DLH1VA
Flight time 0h 49m
Altitude 29000
Route POVEL3Y POVEL Z94 GALMA T703 LULAR T105 LANDU LANDU2B
Aircraft A320/M-SDE2E3FGIJ1LORWXYZ/HB1

Departure

Time 2026-05-06 06:05
Airport Hannover Airport (EDDV)

Arrival

Time 2026-05-06 06:54
Airport Munich Airport (EDDM)
Time Latitude Longitude Altitude Speed Heading
2026-05-06 05:32 52.45839 9.69393 179 ft 0 kts 30°
2026-05-06 05:55 52.45832 9.69387 179 ft 4 kts 30°
2026-05-06 05:56 52.45809 9.69365 179 ft 4 kts 30°
2026-05-06 05:56 52.45789 9.69345 179 ft 3 kts 30°
2026-05-06 05:56 52.45769 9.69334 178 ft 4 kts 330°
2026-05-06 05:56 52.45758 9.69363 178 ft 4 kts 272°
2026-05-06 05:57 52.45758 9.69376 178 ft 1 kts 272°
2026-05-06 05:59 52.45758 9.69358 178 ft 3 kts 272°
2026-05-06 05:59 52.45760 9.69295 178 ft 8 kts 272°
2026-05-06 05:59 52.45759 9.69199 178 ft 7 kts 257°
2026-05-06 05:59 52.45723 9.69152 178 ft 8 kts 190°
2026-05-06 06:00 52.45668 9.69146 179 ft 9 kts 183°
2026-05-06 06:00 52.45625 9.69097 179 ft 7 kts 251°
2026-05-06 06:00 52.45626 9.68985 179 ft 13 kts 272°
2026-05-06 06:00 52.45630 9.68827 179 ft 13 kts 272°
2026-05-06 06:01 52.45634 9.68690 179 ft 11 kts 272°
2026-05-06 06:01 52.45638 9.68527 179 ft 17 kts 272°
2026-05-06 06:01 52.45645 9.68306 179 ft 19 kts 272°
2026-05-06 06:01 52.45651 9.68098 179 ft 17 kts 272°
2026-05-06 06:02 52.45656 9.67914 179 ft 15 kts 272°
2026-05-06 06:02 52.45646 9.67764 179 ft 11 kts 242°
2026-05-06 06:02 52.45609 9.67711 179 ft 5 kts 205°
2026-05-06 06:02 52.45601 9.67707 179 ft 0 kts 196°
2026-05-06 06:03 52.45557 9.67699 181 ft 10 kts 183°
2026-05-06 06:03 52.45513 9.67696 183 ft 4 kts 181°
2026-05-06 06:04 52.45499 9.67710 183 ft 2 kts 122°
2026-05-06 06:04 52.45496 9.67754 183 ft 9 kts 95°
2026-05-06 06:04 52.45483 9.68224 181 ft 81 kts 92°
2026-05-06 06:04 52.45448 9.69522 188 ft 144 kts 91°
2026-05-06 06:05 52.45411 9.71254 774 ft 153 kts 88°
2026-05-06 06:05 52.45365 9.73007 1625 ft 157 kts 89°
2026-05-06 06:05 52.45304 9.74902 2030 ft 178 kts 91°
2026-05-06 06:05 52.45245 9.77071 2506 ft 195 kts 92°
2026-05-06 06:06 52.45040 9.79246 3361 ft 201 kts 111°
2026-05-06 06:06 52.44391 9.81389 3978 ft 217 kts 116°
2026-05-06 06:06 52.43683 9.83649 4743 ft 228 kts 117°
2026-05-06 06:06 52.42848 9.85876 5580 ft 233 kts 131°
2026-05-06 06:07 52.41665 9.87645 6474 ft 237 kts 139°
2026-05-06 06:07 52.40386 9.89383 7295 ft 241 kts 140°
2026-05-06 06:07 52.39090 9.91127 8240 ft 240 kts 139°
2026-05-06 06:07 52.37793 9.92866 9166 ft 242 kts 139°
2026-05-06 06:08 52.36476 9.94612 10025 ft 245 kts 140°
2026-05-06 06:08 52.35141 9.96372 10782 ft 248 kts 140°
2026-05-06 06:08 52.33801 9.98181 11530 ft 253 kts 141°
2026-05-06 06:08 52.32477 10.00140 12238 ft 259 kts 140°
2026-05-06 06:09 52.31161 10.02182 13019 ft 263 kts 139°
2026-05-06 06:09 52.29829 10.04262 13766 ft 267 kts 139°
2026-05-06 06:09 52.28474 10.06366 14454 ft 270 kts 139°
2026-05-06 06:09 52.27097 10.08489 15141 ft 274 kts 139°
2026-05-06 06:10 52.25706 10.10637 15830 ft 277 kts 139°
2026-05-06 06:10 52.24295 10.12809 16507 ft 280 kts 140°
2026-05-06 06:10 52.22812 10.14883 17187 ft 282 kts 143°
2026-05-06 06:10 52.21270 10.16890 17873 ft 285 kts 144°
2026-05-06 06:11 52.19709 10.18908 18489 ft 288 kts 144°
2026-05-06 06:11 52.18128 10.20944 19088 ft 291 kts 144°
2026-05-06 06:11 52.16528 10.22990 19682 ft 293 kts 144°
2026-05-06 06:11 52.14914 10.25048 20290 ft 296 kts 144°
2026-05-06 06:12 52.13287 10.27122 20908 ft 298 kts 144°
2026-05-06 06:12 52.11648 10.29211 21531 ft 300 kts 144°
2026-05-06 06:12 52.09992 10.31308 22160 ft 303 kts 144°
2026-05-06 06:12 52.08435 10.33638 22747 ft 308 kts 128°
2026-05-06 06:13 52.07366 10.36690 23327 ft 314 kts 117°
2026-05-06 06:13 52.06407 10.39890 23817 ft 317 kts 117°
2026-05-06 06:13 52.05456 10.43113 24408 ft 315 kts 117°
2026-05-06 06:13 52.04509 10.46326 24956 ft 315 kts 116°
2026-05-06 06:14 52.03561 10.49534 25470 ft 316 kts 117°
2026-05-06 06:14 52.02551 10.52713 25950 ft 317 kts 125°
2026-05-06 06:14 52.01051 10.55312 26349 ft 319 kts 141°
2026-05-06 06:14 51.99293 10.57597 26612 ft 328 kts 141°
2026-05-06 06:15 51.97478 10.59910 26880 ft 336 kts 142°
2026-05-06 06:15 51.95611 10.62274 27148 ft 344 kts 142°
2026-05-06 06:15 51.93701 10.64691 27417 ft 352 kts 141°
2026-05-06 06:15 51.91748 10.67163 27690 ft 360 kts 141°
2026-05-06 06:16 51.89757 10.69685 27962 ft 368 kts 141°
2026-05-06 06:16 51.87722 10.72265 28235 ft 375 kts 141°
2026-05-06 06:16 51.85653 10.74889 28513 ft 381 kts 141°
2026-05-06 06:16 51.83574 10.77523 28751 ft 388 kts 141°
2026-05-06 06:17 51.81436 10.80229 28991 ft 394 kts 141°
2026-05-06 06:17 51.79262 10.82979 29264 ft 399 kts 141°
2026-05-06 06:17 51.77058 10.85761 29519 ft 405 kts 140°
2026-05-06 06:17 51.74836 10.88590 29767 ft 410 kts 140°
2026-05-06 06:18 51.72602 10.91477 29998 ft 414 kts 140°
2026-05-06 06:18 51.70346 10.94408 30222 ft 418 kts 140°
2026-05-06 06:18 51.68070 10.97364 30444 ft 422 kts 140°
2026-05-06 06:18 51.65768 11.00345 30660 ft 426 kts 140°
2026-05-06 06:19 51.61073 11.06393 30754 ft 438 kts 141°
2026-05-06 06:19 51.56299 11.12517 30753 ft 440 kts 141°
2026-05-06 06:20 51.51499 11.18663 30755 ft 444 kts 141°
2026-05-06 06:20 51.46653 11.24848 30755 ft 446 kts 142°
2026-05-06 06:21 51.41785 11.31034 30753 ft 447 kts 142°
2026-05-06 06:21 51.36913 11.37211 30756 ft 446 kts 142°
2026-05-06 06:22 51.32043 11.43356 30753 ft 446 kts 142°
2026-05-06 06:22 51.27156 11.49472 30752 ft 446 kts 142°
2026-05-06 06:23 51.22260 11.55576 30734 ft 447 kts 143°
2026-05-06 06:23 51.17343 11.61683 30739 ft 448 kts 144°
2026-05-06 06:24 51.11929 11.66452 30739 ft 444 kts 162°
2026-05-06 06:24 51.05899 11.68229 30741 ft 441 kts 179°
2026-05-06 06:25 50.99757 11.68543 30740 ft 442 kts 179°
2026-05-06 06:26 50.90543 11.69076 30767 ft 441 kts 179°
2026-05-06 06:26 50.84414 11.69410 30764 ft 440 kts 179°
2026-05-06 06:27 50.78291 11.69745 30755 ft 440 kts 179°
2026-05-06 06:27 50.72179 11.70165 30758 ft 440 kts 176°
2026-05-06 06:28 50.66219 11.72515 30771 ft 444 kts 165°
2026-05-06 06:28 50.60366 11.75554 30762 ft 442 kts 166°
2026-05-06 06:29 50.54563 11.78553 30779 ft 442 kts 166°
2026-05-06 06:29 50.48725 11.81558 30785 ft 442 kts 166°
2026-05-06 06:30 50.42982 11.85079 30794 ft 444 kts 161°
2026-05-06 06:30 50.37308 11.88935 30802 ft 444 kts 161°
2026-05-06 06:31 50.31629 11.92773 30803 ft 445 kts 161°
2026-05-06 06:31 50.26868 11.95978 30805 ft 445 kts 161°
2026-05-06 06:31 50.23111 11.98505 30677 ft 444 kts 162°
2026-05-06 06:32 50.21197 11.99793 30503 ft 443 kts 162°
2026-05-06 06:32 50.18370 12.01693 30231 ft 442 kts 162°
2026-05-06 06:32 50.15552 12.03590 29981 ft 441 kts 163°
2026-05-06 06:32 50.12775 12.05453 29707 ft 440 kts 163°
2026-05-06 06:33 50.09959 12.07340 29426 ft 441 kts 163°
2026-05-06 06:33 50.07142 12.09228 29154 ft 442 kts 162°
2026-05-06 06:33 50.04312 12.11116 28855 ft 442 kts 162°
2026-05-06 06:33 50.01481 12.12995 28576 ft 443 kts 162°
2026-05-06 06:34 49.98639 12.14884 28279 ft 445 kts 162°
2026-05-06 06:34 49.95793 12.16776 28007 ft 446 kts 162°
2026-05-06 06:34 49.92936 12.18670 27731 ft 447 kts 162°
2026-05-06 06:34 49.90071 12.20568 27465 ft 448 kts 162°
2026-05-06 06:35 49.87202 12.22463 27195 ft 449 kts 162°
2026-05-06 06:35 49.84325 12.24362 26932 ft 450 kts 162°
2026-05-06 06:35 49.81442 12.26265 26766 ft 450 kts 162°
2026-05-06 06:35 49.78557 12.28165 26808 ft 451 kts 162°
2026-05-06 06:36 49.75668 12.30072 26786 ft 451 kts 162°
2026-05-06 06:36 49.72818 12.32122 26810 ft 455 kts 156°
2026-05-06 06:36 49.70145 12.34791 26815 ft 461 kts 148°
2026-05-06 06:36 49.67594 12.37800 26811 ft 461 kts 148°
2026-05-06 06:37 49.65042 12.40795 26821 ft 461 kts 149°
2026-05-06 06:37 49.62333 12.43330 26828 ft 451 kts 161°
2026-05-06 06:37 49.59372 12.44719 26821 ft 441 kts 175°
2026-05-06 06:37 49.56348 12.44924 26822 ft 433 kts 189°
2026-05-06 06:38 49.53383 12.44238 26823 ft 430 kts 193°
2026-05-06 06:38 49.50432 12.43459 26820 ft 431 kts 193°
2026-05-06 06:38 49.47478 12.42667 26827 ft 431 kts 193°
2026-05-06 06:38 49.44533 12.41891 26424 ft 427 kts 193°
2026-05-06 06:39 49.41581 12.41268 25264 ft 430 kts 190°
2026-05-06 06:39 49.38581 12.40800 24016 ft 436 kts 189°
2026-05-06 06:39 49.35541 12.40431 22909 ft 438 kts 188°
2026-05-06 06:39 49.32515 12.40106 22096 ft 435 kts 188°
2026-05-06 06:40 49.29502 12.39772 21535 ft 434 kts 188°
2026-05-06 06:40 49.26501 12.39406 21019 ft 432 kts 188°
2026-05-06 06:40 49.23521 12.39009 20509 ft 429 kts 188°
2026-05-06 06:40 49.20555 12.38588 20014 ft 427 kts 189°
2026-05-06 06:41 49.17609 12.38156 19518 ft 424 kts 189°
2026-05-06 06:41 49.14678 12.37729 19039 ft 422 kts 188°
2026-05-06 06:41 49.11759 12.37310 18563 ft 420 kts 188°
2026-05-06 06:41 49.08859 12.36901 18038 ft 418 kts 189°
2026-05-06 06:42 49.06012 12.36192 17433 ft 413 kts 194°
2026-05-06 06:42 49.03251 12.35279 16868 ft 410 kts 194°
2026-05-06 06:42 49.00441 12.34331 16285 ft 407 kts 194°
2026-05-06 06:42 48.97725 12.33408 15723 ft 404 kts 194°
2026-05-06 06:43 48.94993 12.32474 15156 ft 401 kts 194°
2026-05-06 06:43 48.92283 12.31542 14595 ft 398 kts 194°
2026-05-06 06:43 48.89557 12.30600 14036 ft 395 kts 194°
2026-05-06 06:43 48.86885 12.29672 13471 ft 393 kts 194°
2026-05-06 06:44 48.84266 12.28757 12802 ft 389 kts 194°
2026-05-06 06:44 48.81639 12.27836 12101 ft 386 kts 194°
2026-05-06 06:44 48.79038 12.26922 11415 ft 382 kts 194°
2026-05-06 06:44 48.76463 12.26013 10744 ft 377 kts 194°
2026-05-06 06:45 48.73927 12.25115 10138 ft 371 kts 194°
2026-05-06 06:45 48.71434 12.24231 9518 ft 365 kts 194°
2026-05-06 06:45 48.68977 12.23356 8894 ft 359 kts 194°
2026-05-06 06:45 48.66581 12.22501 8376 ft 349 kts 194°
2026-05-06 06:46 48.64242 12.21660 7864 ft 341 kts 194°
2026-05-06 06:46 48.61967 12.20795 7365 ft 334 kts 194°
2026-05-06 06:46 48.59735 12.19928 6873 ft 328 kts 195°
2026-05-06 06:46 48.57554 12.19073 6529 ft 318 kts 194°
2026-05-06 06:47 48.55450 12.18244 6292 ft 307 kts 194°
2026-05-06 06:47 48.53423 12.17445 6080 ft 295 kts 194°
2026-05-06 06:47 48.51475 12.16684 5900 ft 283 kts 194°
2026-05-06 06:47 48.49611 12.15969 5757 ft 271 kts 194°
2026-05-06 06:48 48.47819 12.15297 5601 ft 260 kts 194°
2026-05-06 06:48 48.46100 12.14674 5450 ft 249 kts 193°
2026-05-06 06:48 48.44458 12.14085 5356 ft 236 kts 194°
2026-05-06 06:48 48.42900 12.13492 5254 ft 226 kts 194°
2026-05-06 06:49 48.41450 12.12922 5199 ft 216 kts 195°
2026-05-06 06:49 48.40155 12.11940 5134 ft 206 kts 225°
2026-05-06 06:49 48.39410 12.10183 5096 ft 196 kts 246°
2026-05-06 06:49 48.38955 12.08270 4991 ft 197 kts 253°
2026-05-06 06:50 48.38653 12.06235 4726 ft 202 kts 259°
2026-05-06 06:50 48.38431 12.04133 4461 ft 205 kts 262°
2026-05-06 06:50 48.38236 12.02001 4165 ft 207 kts 262°
2026-05-06 06:50 48.38051 11.99903 3955 ft 197 kts 263°
2026-05-06 06:51 48.37892 11.97891 3714 ft 191 kts 263°
2026-05-06 06:51 48.37741 11.95948 3456 ft 186 kts 263°
2026-05-06 06:51 48.37589 11.94092 3171 ft 177 kts 263°
2026-05-06 06:51 48.37443 11.92310 2914 ft 167 kts 264°
2026-05-06 06:52 48.37332 11.90613 2657 ft 159 kts 264°
2026-05-06 06:52 48.37218 11.89042 2457 ft 144 kts 264°
2026-05-06 06:52 48.37110 11.87562 2226 ft 142 kts 264°
2026-05-06 06:52 48.36989 11.86089 2023 ft 142 kts 263°
2026-05-06 06:53 48.36880 11.84617 1828 ft 142 kts 263°
2026-05-06 06:53 48.36771 11.83152 1658 ft 141 kts 262°
2026-05-06 06:53 48.36657 11.81689 1500 ft 139 kts 262°
2026-05-06 06:53 48.36556 11.80388 1486 ft 109 kts 262°
2026-05-06 06:54 48.36488 11.79514 1485 ft 59 kts 263°
2026-05-06 06:54 48.36434 11.79008 1473 ft 40 kts 250°
2026-05-06 06:54 48.36290 11.78683 1478 ft 36 kts 233°
2026-05-06 06:54 48.36170 11.78482 1482 ft 20 kts 199°
2026-05-06 06:55 48.36047 11.78495 1475 ft 13 kts 155°
2026-05-06 06:55 48.36041 11.78637 1485 ft 18 kts 83°
2026-05-06 06:55 48.36060 11.78882 1483 ft 26 kts 84°
2026-05-06 06:55 48.36079 11.79143 1481 ft 21 kts 84°
2026-05-06 06:56 48.36082 11.79304 1485 ft 10 kts 123°
2026-05-06 06:56 48.36019 11.79327 1475 ft 10 kts 173°
2026-05-06 06:56 48.35941 11.79344 1483 ft 13 kts 166°
2026-05-06 06:56 48.35846 11.79386 1483 ft 15 kts 172°
2026-05-06 06:57 48.35732 11.79404 1485 ft 18 kts 174°
2026-05-06 06:57 48.35604 11.79428 1481 ft 20 kts 173°
2026-05-06 06:57 48.35462 11.79453 1485 ft 22 kts 173°
2026-05-06 06:57 48.35307 11.79480 1480 ft 23 kts 173°
2026-05-06 06:58 48.35171 11.79503 1482 ft 14 kts 174°
2026-05-06 06:58 48.35122 11.79593 1483 ft 13 kts 84°
2026-05-06 06:58 48.35134 11.79739 1485 ft 15 kts 83°
2026-05-06 06:58 48.35147 11.79905 1485 ft 17 kts 84°
2026-05-06 06:59 48.35161 11.80092 1477 ft 19 kts 83°
2026-05-06 06:59 48.35177 11.80300 1485 ft 21 kts 83°
2026-05-06 06:59 48.35195 11.80529 1485 ft 23 kts 83°
2026-05-06 06:59 48.35214 11.80777 1471 ft 24 kts 83°
2026-05-06 07:00 48.35228 11.80964 1481 ft 13 kts 84°
2026-05-06 07:00 48.35239 11.81030 1485 ft 3 kts 41°
2026-05-06 07:00 48.35259 11.81032 1485 ft 4 kts 358°
2026-05-06 07:00 48.35289 11.81028 1481 ft 3 kts 354°
2026-05-06 07:01 48.35292 11.81027 1482 ft 0 kts 354°